Time,TemperatureF,DewpointF,PressureIn,WindDirection,WindDirectionDegrees,WindSpeedMPH,WindSpeedGustMPH,Humidity,HourlyPrecipIn,Conditions,Clouds,dailyrainin,SoftwareType,DateUTC
2013-01-28 00:01:00,37.2,30.7,30.52,NE,45,9.0,10.0,77,0.00,,---,0.00,VWS V14.01,2013-01-28 05:01:00,
2013-01-28 00:02:00,37.1,30.6,30.52,NE,34,10.0,11.0,77,0.00,,---,0.00,VWS V14.01,2013-01-28 05:02:00,
2013-01-28 00:03:00,37.0,30.1,30.51,NE,40,7.0,11.0,76,0.00,,---,0.00,VWS V14.01,2013-01-28 05:03:00,
2013-01-28 00:08:00,37.1,30.6,30.51,NE,36,9.0,11.0,77,0.00,,---,0.00,VWS V14.01,2013-01-28 05:08:00,
2013-01-28 00:13:00,37.1,30.6,30.51,NE,49,5.0,11.0,77,0.00,,---,0.00,VWS V14.01,2013-01-28 05:13:00,
2013-01-28 00:18:00,36.9,30.7,30.51,NE,50,7.0,11.0,78,0.00,,---,0.00,VWS V14.01,2013-01-28 05:18:00,
2013-01-28 00:23:00,36.7,30.5,30.51,NE,39,8.0,11.0,78,0.00,,---,0.00,VWS V14.01,2013-01-28 05:23:00,
2013-01-28 00:28:00,36.8,30.6,30.50,NE,53,9.0,11.0,78,0.00,,---,0.00,VWS V14.01,2013-01-28 05:28:00,
2013-01-28 00:33:00,36.6,30.7,30.50,NE,49,8.0,11.0,79,0.00,,---,0.00,VWS V14.01,2013-01-28 05:33:00,
2013-01-28 00:38:00,36.5,30.6,30.50,NE,49,9.0,11.0,79,0.00,,---,0.00,VWS V14.01,2013-01-28 05:38:00,
2013-01-28 00:43:00,36.6,30.7,30.50,NE,45,7.0,11.0,79,0.00,,---,0.00,VWS V14.01,2013-01-28 05:43:00,
2013-01-28 00:48:00,36.4,30.5,30.50,NE,40,8.0,11.0,79,0.00,,---,0.00,VWS V14.01,2013-01-28 05:48:00,
2013-01-28 00:54:00,35.9,30.0,30.50,NE,40,10.0,11.0,79,0.00,,---,0.00,VWS V14.01,2013-01-28 05:54:00,
2013-01-28 00:59:00,35.9,30.0,30.50,NNE,32,9.0,10.0,79,0.00,,---,0.00,VWS V14.01,2013-01-28 05:59:00,
2013-01-28 01:04:00,35.7,29.8,30.50,North,360,7.0,11.0,79,0.00,,---,0.00,VWS V14.01,2013-01-28 06:04:00,
2013-01-28 01:09:00,35.4,29.9,30.50,NNE,26,10.0,11.0,80,0.00,,---,0.00,VWS V14.01,2013-01-28 06:09:00,
2013-01-28 01:14:00,35.4,29.9,30.50,NNE,30,9.0,11.0,80,0.00,,---,0.00,VWS V14.01,2013-01-28 06:14:00,
2013-01-28 01:19:00,35.4,29.9,30.49,NE,36,11.0,12.0,80,0.00,,---,0.00,VWS V14.01,2013-01-28 06:19:00,
2013-01-28 01:24:00,35.3,29.8,30.49,NE,34,6.0,12.0,80,0.00,,---,0.00,VWS V14.01,2013-01-28 06:24:00,
2013-01-28 01:29:00,35.4,30.2,30.49,NE,40,9.0,10.0,81,0.00,,---,0.00,VWS V14.01,2013-01-28 06:29:00,
2013-01-28 01:34:00,35.7,30.5,30.49,NE,44,12.0,14.0,81,0.00,,---,0.00,VWS V14.01,2013-01-28 06:34:00,
2013-01-28 01:39:00,35.8,30.5,30.49,NNE,30,10.0,14.0,81,0.00,,---,0.00,VWS V14.01,2013-01-28 06:39:00,
2013-01-28 01:44:00,35.8,30.5,30.49,NNE,33,7.0,14.0,81,0.00,,---,0.00,VWS V14.01,2013-01-28 06:44:00,
2013-01-28 01:50:00,36.0,30.8,30.49,NE,39,10.0,14.0,81,0.00,,---,0.00,VWS V14.01,2013-01-28 06:50:00,
2013-01-28 01:55:00,36.1,30.5,30.49,NE,44,11.0,14.0,80,0.00,,---,0.00,VWS V14.01,2013-01-28 06:55:00,
2013-01-28 02:00:00,36.0,30.4,30.49,NE,34,11.0,12.0,80,0.00,,---,0.00,VWS V14.01,2013-01-28 07:00:00,
2013-01-28 02:05:00,36.1,30.8,30.49,NNE,26,12.0,12.0,81,0.00,,---,0.00,VWS V14.01,2013-01-28 07:05:00,
2013-01-28 02:10:00,35.9,30.3,30.49,NNE,28,13.0,13.0,80,0.00,,---,0.00,VWS V14.01,2013-01-28 07:10:00,
2013-01-28 02:15:00,35.9,30.6,30.49,NE,38,10.0,13.0,81,0.00,,---,0.00,VWS V14.01,2013-01-28 07:15:00,
2013-01-28 02:20:00,35.9,30.6,30.49,NNE,23,10.0,13.0,81,0.00,,---,0.00,VWS V14.01,2013-01-28 07:20:00,
2013-01-28 02:25:00,35.7,30.5,30.49,NNE,19,11.0,13.0,81,0.00,,---,0.00,VWS V14.01,2013-01-28 07:25:00,
2013-01-28 02:30:00,35.7,30.8,30.49,NNE,19,8.0,14.0,82,0.00,,---,0.00,VWS V14.01,2013-01-28 07:30:00,
2013-01-28 02:35:00,35.7,30.5,30.49,NNE,32,10.0,14.0,81,0.00,,---,0.00,VWS V14.01,2013-01-28 07:35:00,
2013-01-28 02:40:00,35.9,31.0,30.48,NNE,32,9.0,14.0,82,0.00,,---,0.00,VWS V14.01,2013-01-28 07:40:00,
2013-01-28 02:45:00,35.9,31.0,30.47,NE,45,9.0,14.0,82,0.00,,---,0.00,VWS V14.01,2013-01-28 07:45:00,
2013-01-28 02:50:00,35.9,30.6,30.48,NE,40,10.0,14.0,81,0.00,,---,0.00,VWS V14.01,2013-01-28 07:50:00,
2013-01-28 02:55:00,36.0,30.8,30.47,NE,45,9.0,14.0,81,0.00,,---,0.00,VWS V14.01,2013-01-28 07:55:00,
2013-01-28 03:00:00,36.1,30.8,30.48,NE,49,11.0,11.0,81,0.00,,---,0.00,VWS V14.01,2013-01-28 08:00:00,
2013-01-28 03:05:00,36.1,30.8,30.48,NNE,26,11.0,11.0,81,0.00,,---,0.00,VWS V14.01,2013-01-28 08:05:00,
2013-01-28 03:10:00,36.0,30.8,30.48,NE,44,11.0,11.0,81,0.00,,---,0.00,VWS V14.01,2013-01-28 08:10:00,
2013-01-28 03:16:00,36.0,30.8,30.47,NE,56,7.0,11.0,81,0.00,,---,0.00,VWS V14.01,2013-01-28 08:16:00,
2013-01-28 03:21:00,36.1,30.8,30.46,NE,40,10.0,13.0,81,0.00,,---,0.00,VWS V14.01,2013-01-28 08:21:00,
2013-01-28 03:26:00,36.2,30.9,30.46,ENE,59,12.0,13.0,81,0.00,,---,0.00,VWS V14.01,2013-01-28 08:26:00,
2013-01-28 03:31:00,36.2,30.9,30.46,ENE,66,10.0,13.0,81,0.00,,---,0.00,VWS V14.01,2013-01-28 08:31:00,
2013-01-28 03:36:00,36.3,31.3,30.46,ENE,65,12.0,13.0,82,0.00,,---,0.00,VWS V14.01,2013-01-28 08:36:00,
2013-01-28 03:41:00,36.3,31.0,30.45,ENE,60,11.0,13.0,81,0.00,,---,0.00,VWS V14.01,2013-01-28 08:41:00,
2013-01-28 03:46:00,36.4,31.4,30.46,NE,53,11.0,13.0,82,0.00,,---,0.00,VWS V14.01,2013-01-28 08:46:00,
2013-01-28 03:51:00,36.3,31.3,30.46,NE,44,11.0,13.0,82,0.00,,---,0.00,VWS V14.01,2013-01-28 08:51:00,
2013-01-28 03:56:00,36.3,31.3,30.46,NE,49,9.0,13.0,82,0.00,,---,0.00,VWS V14.01,2013-01-28 08:56:00,
2013-01-28 04:01:00,36.4,31.4,30.46,ENE,65,6.0,11.0,82,0.00,,---,0.00,VWS V14.01,2013-01-28 09:01:00,
2013-01-28 04:06:00,36.5,31.5,30.45,NE,37,9.0,11.0,82,0.00,,---,0.00,VWS V14.01,2013-01-28 09:06:00,
2013-01-28 04:11:00,36.5,31.5,30.45,NE,38,9.0,11.0,82,0.00,,---,0.00,VWS V14.01,2013-01-28 09:11:00,
2013-01-28 04:16:00,36.6,31.6,30.45,NE,53,9.0,11.0,82,0.00,,---,0.00,VWS V14.01,2013-01-28 09:16:00,
2013-01-28 04:21:00,36.7,31.7,30.45,NE,55,7.0,11.0,82,0.00,,---,0.00,VWS V14.01,2013-01-28 09:21:00,
2013-01-28 04:26:00,36.9,31.9,30.45,NE,46,7.0,11.0,82,0.00,,---,0.00,VWS V14.01,2013-01-28 09:26:00,
2013-01-28 04:31:00,36.8,31.8,30.45,NE,43,6.0,9.0,82,0.00,,---,0.00,VWS V14.01,2013-01-28 09:31:00,
2013-01-28 04:36:00,37.0,32.0,30.44,NE,55,4.0,10.0,82,0.00,,---,0.00,VWS V14.01,2013-01-28 09:36:00,
2013-01-28 04:41:00,37.6,32.9,30.45,ENE,63,12.0,13.0,83,0.00,,---,0.00,VWS V14.01,2013-01-28 09:41:00,
2013-01-28 04:47:00,37.5,32.2,30.45,ENE,65,10.0,13.0,81,0.00,,---,0.00,VWS V14.01,2013-01-28 09:47:00,
2013-01-28 04:52:00,37.5,32.5,30.45,NE,36,7.0,13.0,82,0.00,,---,0.00,VWS V14.01,2013-01-28 09:52:00,
2013-01-28 04:57:00,37.4,32.1,30.45,ENE,59,10.0,13.0,81,0.00,,---,0.00,VWS V14.01,2013-01-28 09:57:00,
2013-01-28 05:02:00,37.5,32.5,30.44,ENE,67,8.0,11.0,82,0.00,,---,0.00,VWS V14.01,2013-01-28 10:02:00,
2013-01-28 05:07:00,37.6,32.6,30.44,ENE,61,9.0,11.0,82,0.00,,---,0.00,VWS V14.01,2013-01-28 10:07:00,
2013-01-28 05:12:00,37.6,32.3,30.44,ENE,64,11.0,11.0,81,0.00,,---,0.00,VWS V14.01,2013-01-28 10:12:00,
2013-01-28 05:17:00,37.7,32.7,30.45,NE,41,7.0,11.0,82,0.00,,---,0.00,VWS V14.01,2013-01-28 10:17:00,
2013-01-28 05:22:00,37.6,32.6,30.45,NE,44,10.0,11.0,82,0.00,,---,0.00,VWS V14.01,2013-01-28 10:22:00,
2013-01-28 05:27:00,37.7,32.7,30.45,NE,53,9.0,11.0,82,0.00,,---,0.00,VWS V14.01,2013-01-28 10:27:00,
2013-01-28 05:32:00,37.6,32.6,30.45,NNE,15,9.0,11.0,82,0.00,,---,0.00,VWS V14.01,2013-01-28 10:32:00,
2013-01-28 05:37:00,37.5,32.8,30.46,NNE,31,10.0,11.0,83,0.00,,---,0.00,VWS V14.01,2013-01-28 10:37:00,
2013-01-28 05:42:00,37.2,32.5,30.45,NE,38,9.0,11.0,83,0.00,,---,0.00,VWS V14.01,2013-01-28 10:42:00,
2013-01-28 05:47:00,37.2,32.8,30.45,NE,39,9.0,12.0,84,0.00,,---,0.00,VWS V14.01,2013-01-28 10:47:00,
2013-01-28 05:52:00,36.9,32.5,30.46,NNE,22,9.0,12.0,84,0.00,,---,0.00,VWS V14.01,2013-01-28 10:52:00,
2013-01-28 05:57:00,36.8,32.4,30.46,NE,34,11.0,12.0,84,0.00,,---,0.00,VWS V14.01,2013-01-28 10:57:00,
2013-01-28 06:02:00,36.6,32.2,30.46,NNE,32,10.0,12.0,84,0.00,,---,0.00,VWS V14.01,2013-01-28 11:02:00,
2013-01-28 06:07:00,36.6,32.5,30.47,NE,35,10.0,12.0,85,0.00,,---,0.00,VWS V14.01,2013-01-28 11:07:00,
2013-01-28 06:12:00,36.8,33.0,30.46,NE,38,6.0,12.0,86,0.00,,---,0.00,VWS V14.01,2013-01-28 11:12:00,
2013-01-28 06:17:00,36.6,32.5,30.46,NE,38,6.0,12.0,85,0.00,,---,0.00,VWS V14.01,2013-01-28 11:17:00,
2013-01-28 06:23:00,36.5,32.4,30.46,NE,40,9.0,12.0,85,0.00,,---,0.00,VWS V14.01,2013-01-28 11:23:00,
2013-01-28 06:28:00,36.4,32.6,30.47,North,360,7.0,12.0,86,0.00,,---,0.00,VWS V14.01,2013-01-28 11:28:00,
2013-01-28 06:33:00,36.4,32.6,30.47,North,5,9.0,11.0,86,0.00,,---,0.00,VWS V14.01,2013-01-28 11:33:00,
2013-01-28 06:38:00,36.3,32.5,30.47,NNE,16,6.0,11.0,86,0.00,,---,0.00,VWS V14.01,2013-01-28 11:38:00,
2013-01-28 06:43:00,36.4,32.6,30.47,North,9,7.0,11.0,86,0.00,,---,0.00,VWS V14.01,2013-01-28 11:43:00,
2013-01-28 06:48:00,36.2,32.4,30.47,NNE,19,7.0,11.0,86,0.00,,---,0.00,VWS V14.01,2013-01-28 11:48:00,
2013-01-28 06:53:00,36.3,32.5,30.46,NNE,24,7.0,11.0,86,0.00,,---,0.00,VWS V14.01,2013-01-28 11:53:00,
2013-01-28 06:58:00,36.4,32.6,30.46,NNE,20,11.0,11.0,86,0.00,,---,0.00,VWS V14.01,2013-01-28 11:58:00,
2013-01-28 07:03:00,36.5,32.7,30.46,NE,54,8.0,11.0,86,0.00,,---,0.00,VWS V14.01,2013-01-28 12:03:00,
2013-01-28 07:08:00,36.7,32.9,30.46,NE,40,10.0,11.0,86,0.00,,---,0.00,VWS V14.01,2013-01-28 12:08:00,
2013-01-28 07:13:00,36.9,33.1,30.46,NE,44,8.0,12.0,86,0.00,,---,0.00,VWS V14.01,2013-01-28 12:13:00,
2013-01-28 07:18:00,37.2,33.7,30.46,NE,48,6.0,12.0,87,0.00,,---,0.00,VWS V14.01,2013-01-28 12:18:00,
2013-01-28 07:23:00,37.3,33.5,30.46,NE,52,6.0,12.0,86,0.00,,---,0.00,VWS V14.01,2013-01-28 12:23:00,
2013-01-28 07:28:00,37.5,33.7,30.46,NE,40,6.0,9.0,86,0.00,,---,0.00,VWS V14.01,2013-01-28 12:28:00,
2013-01-28 07:33:00,37.6,33.8,30.45,NE,48,10.0,11.0,86,0.00,,---,0.00,VWS V14.01,2013-01-28 12:33:00,
2013-01-28 07:38:00,37.8,34.0,30.46,NE,44,8.0,12.0,86,0.00,,---,0.00,VWS V14.01,2013-01-28 12:38:00,
2013-01-28 07:43:00,37.9,34.1,30.46,NE,50,5.0,12.0,86,0.00,,---,0.00,VWS V14.01,2013-01-28 12:43:00,
2013-01-28 07:48:00,37.9,33.8,30.46,NE,46,7.0,12.0,85,0.00,,---,0.00,VWS V14.01,2013-01-28 12:48:00,
2013-01-28 07:53:00,38.1,34.3,30.47,NE,38,10.0,12.0,86,0.00,,---,0.00,VWS V14.01,2013-01-28 12:53:00,
2013-01-28 07:58:00,38.5,34.7,30.47,NNE,32,10.0,10.0,86,0.00,,---,0.00,VWS V14.01,2013-01-28 12:58:00,
2013-01-28 08:03:00,38.4,34.6,30.47,NE,34,9.0,11.0,86,0.00,,---,0.00,VWS V14.01,2013-01-28 13:03:00,
2013-01-28 08:08:00,38.8,35.0,30.47,NE,46,6.0,11.0,86,0.00,,---,0.00,VWS V14.01,2013-01-28 13:08:00,
2013-01-28 08:13:00,39.1,35.3,30.47,NNE,31,7.0,12.0,86,0.00,,---,0.00,VWS V14.01,2013-01-28 13:13:00,
2013-01-28 08:18:00,39.3,35.5,30.47,NE,42,9.0,12.0,86,0.00,,---,0.00,VWS V14.01,2013-01-28 13:18:00,
2013-01-28 08:23:00,39.7,35.9,30.47,NE,46,6.0,12.0,86,0.00,,---,0.00,VWS V14.01,2013-01-28 13:23:00,
2013-01-28 08:28:00,39.8,35.7,30.47,ENE,57,8.0,8.0,85,0.00,,---,0.00,VWS V14.01,2013-01-28 13:28:00,
2013-01-28 08:33:00,40.0,36.2,30.47,NE,45,6.0,11.0,86,0.00,,---,0.00,VWS V14.01,2013-01-28 13:33:00,
2013-01-28 08:38:00,40.1,36.0,30.47,NE,46,5.0,11.0,85,0.00,,---,0.00,VWS V14.01,2013-01-28 13:38:00,
2013-01-28 08:43:00,40.4,36.5,30.47,ENE,61,7.0,11.0,86,0.00,,---,0.00,VWS V14.01,2013-01-28 13:43:00,
2013-01-28 08:48:00,40.5,36.7,30.47,East,81,8.0,11.0,86,0.00,,---,0.00,VWS V14.01,2013-01-28 13:48:00,
2013-01-28 08:53:00,40.5,36.7,30.47,ENE,67,7.0,11.0,86,0.00,,---,0.00,VWS V14.01,2013-01-28 13:53:00,
2013-01-28 08:58:00,40.6,36.5,30.48,NE,52,6.0,7.0,85,0.00,,---,0.00,VWS V14.01,2013-01-28 13:58:00,
2013-01-28 09:03:00,40.6,36.5,30.48,ENE,59,7.0,10.0,85,0.00,,---,0.00,VWS V14.01,2013-01-28 14:03:00,
2013-01-28 09:09:00,40.6,36.5,30.48,NE,44,7.0,10.0,85,0.00,,---,0.00,VWS V14.01,2013-01-28 14:09:00,
2013-01-28 09:14:00,40.7,36.5,30.48,NE,56,7.0,10.0,85,0.00,,---,0.00,VWS V14.01,2013-01-28 14:14:00,
2013-01-28 09:19:00,41.0,37.1,30.48,ENE,62,5.0,10.0,86,0.00,,---,0.00,VWS V14.01,2013-01-28 14:19:00,
2013-01-28 09:24:00,41.2,37.0,30.48,NE,47,10.0,10.0,85,0.00,,---,0.00,VWS V14.01,2013-01-28 14:24:00,
2013-01-28 09:29:00,41.5,37.3,30.48,NNE,15,10.0,10.0,85,0.00,,---,0.00,VWS V14.01,2013-01-28 14:29:00,
2013-01-28 09:34:00,41.8,37.6,30.48,North,5,10.0,11.0,85,0.00,,---,0.00,VWS V14.01,2013-01-28 14:34:00,
2013-01-28 09:39:00,41.9,37.4,30.48,NNE,32,5.0,13.0,84,0.00,,---,0.00,VWS V14.01,2013-01-28 14:39:00,
2013-01-28 09:44:00,42.2,37.7,30.48,NNE,28,5.0,13.0,84,0.00,,---,0.00,VWS V14.01,2013-01-28 14:44:00,
2013-01-28 09:49:00,42.5,38.0,30.48,NNE,23,8.0,13.0,84,0.00,,---,0.00,VWS V14.01,2013-01-28 14:49:00,
2013-01-28 09:54:00,42.7,37.9,30.48,NE,39,6.0,13.0,83,0.00,,---,0.00,VWS V14.01,2013-01-28 14:54:00,
2013-01-28 09:59:00,42.7,37.9,30.48,NNE,23,8.0,8.0,83,0.00,,---,0.00,VWS V14.01,2013-01-28 14:59:00,
2013-01-28 10:04:00,43.0,38.2,30.47,NE,53,4.0,9.0,83,0.00,,---,0.00,VWS V14.01,2013-01-28 15:04:00,
2013-01-28 10:09:00,43.3,38.8,30.47,NE,53,6.0,9.0,84,0.00,,---,0.00,VWS V14.01,2013-01-28 15:09:00,
2013-01-28 10:14:00,43.4,38.6,30.48,NE,38,5.0,9.0,83,0.00,,---,0.00,VWS V14.01,2013-01-28 15:14:00,
2013-01-28 10:19:00,43.7,38.9,30.48,NE,39,6.0,9.0,83,0.00,,---,0.00,VWS V14.01,2013-01-28 15:19:00,
2013-01-28 10:24:00,44.0,39.2,30.48,NE,46,5.0,9.0,83,0.00,,---,0.00,VWS V14.01,2013-01-28 15:24:00,
2013-01-28 10:29:00,44.4,39.6,30.48,NE,46,6.0,7.0,83,0.00,,---,0.00,VWS V14.01,2013-01-28 15:29:00,
2013-01-28 10:34:00,44.7,39.9,30.48,NE,40,7.0,9.0,83,0.00,,---,0.00,VWS V14.01,2013-01-28 15:34:00,
2013-01-28 10:39:00,45.1,39.9,30.47,ENE,58,5.0,9.0,82,0.00,,---,0.00,VWS V14.01,2013-01-28 15:39:00,
2013-01-28 10:44:00,45.2,40.0,30.46,ENE,66,6.0,9.0,82,0.00,,---,0.00,VWS V14.01,2013-01-28 15:44:00,
2013-01-28 10:50:00,45.4,40.2,30.46,ENE,59,5.0,9.0,82,0.00,,---,0.00,VWS V14.01,2013-01-28 15:50:00,
2013-01-28 10:55:00,45.8,40.6,30.46,ENE,70,4.0,9.0,82,0.00,,---,0.00,VWS V14.01,2013-01-28 15:55:00,
2013-01-28 11:00:00,46.0,40.8,30.46,ENE,64,7.0,7.0,82,0.00,,---,0.00,VWS V14.01,2013-01-28 16:00:00,
2013-01-28 11:05:00,46.3,41.1,30.45,ENE,63,5.0,7.0,82,0.00,,---,0.00,VWS V14.01,2013-01-28 16:05:00,
2013-01-28 11:10:00,46.5,41.3,30.45,ENE,65,3.0,7.0,82,0.00,,---,0.00,VWS V14.01,2013-01-28 16:10:00,
2013-01-28 11:15:00,46.8,41.3,30.45,NE,51,5.0,7.0,81,0.00,,---,0.00,VWS V14.01,2013-01-28 16:15:00,
2013-01-28 11:20:00,46.9,41.4,30.45,ENE,60,5.0,7.0,81,0.00,,---,0.00,VWS V14.01,2013-01-28 16:20:00,
2013-01-28 11:25:00,47.0,41.8,30.44,ENE,63,6.0,7.0,82,0.00,,---,0.00,VWS V14.01,2013-01-28 16:25:00,
2013-01-28 11:30:00,47.4,42.2,30.44,East,88,5.0,7.0,82,0.00,,---,0.00,VWS V14.01,2013-01-28 16:30:00,
2013-01-28 11:35:00,47.8,42.6,30.44,ESE,103,6.0,9.0,82,0.00,,---,0.00,VWS V14.01,2013-01-28 16:35:00,
2013-01-28 11:40:00,48.1,42.5,30.43,ESE,119,2.0,10.0,81,0.00,,---,0.00,VWS V14.01,2013-01-28 16:40:00,
2013-01-28 11:45:00,48.0,42.1,30.43,ESE,119,8.0,10.0,80,0.00,,---,0.00,VWS V14.01,2013-01-28 16:45:00,
2013-01-28 11:50:00,48.1,42.2,30.43,East,94,4.0,10.0,80,0.00,,---,0.00,VWS V14.01,2013-01-28 16:50:00,
2013-01-28 11:55:00,47.9,42.0,30.43,ESE,109,7.0,10.0,80,0.00,,---,0.00,VWS V14.01,2013-01-28 16:55:00,
2013-01-28 12:00:00,47.8,42.3,30.42,ESE,107,5.0,7.0,81,0.00,,---,0.00,VWS V14.01,2013-01-28 17:00:00,
2013-01-28 12:05:00,47.7,42.2,30.42,ESE,121,3.0,7.0,81,0.00,,---,0.00,VWS V14.01,2013-01-28 17:05:00,
2013-01-28 12:10:00,47.8,42.3,30.41,ESE,103,4.0,7.0,81,0.00,,---,0.00,VWS V14.01,2013-01-28 17:10:00,
2013-01-28 12:15:00,47.9,42.7,30.41,ESE,116,4.0,8.0,82,0.00,,---,0.00,VWS V14.01,2013-01-28 17:15:00,
2013-01-28 12:20:00,48.1,42.9,30.41,ESE,109,7.0,8.0,82,0.00,,---,0.00,VWS V14.01,2013-01-28 17:20:00,
2013-01-28 12:26:00,48.2,43.0,30.40,SE,130,3.0,8.0,82,0.00,,---,0.00,VWS V14.01,2013-01-28 17:26:00,
2013-01-28 12:31:00,48.2,43.0,30.40,ESE,123,3.0,9.0,82,0.00,,---,0.00,VWS V14.01,2013-01-28 17:31:00,
2013-01-28 12:36:00,48.2,43.0,30.40,ESE,122,3.0,9.0,82,0.00,,---,0.00,VWS V14.01,2013-01-28 17:36:00,
2013-01-28 12:41:00,48.1,42.9,30.40,ESE,105,5.0,9.0,82,0.00,,---,0.00,VWS V14.01,2013-01-28 17:41:00,
2013-01-28 12:46:00,48.1,43.2,30.40,ESE,111,3.0,9.0,83,0.00,,---,0.00,VWS V14.01,2013-01-28 17:46:00,
2013-01-28 12:51:00,48.1,43.2,30.40,ESE,107,0.0,9.0,83,0.00,,---,0.00,VWS V14.01,2013-01-28 17:51:00,
2013-01-28 12:56:00,48.0,43.1,30.39,ESE,120,3.0,9.0,83,0.00,,---,0.00,VWS V14.01,2013-01-28 17:56:00,
2013-01-28 13:01:00,48.2,43.3,30.39,ESE,119,2.0,6.0,83,0.00,,---,0.00,VWS V14.01,2013-01-28 18:01:00,
2013-01-28 13:06:00,48.4,43.5,30.38,East,101,5.0,6.0,83,0.00,,---,0.00,VWS V14.01,2013-01-28 18:06:00,
2013-01-28 13:11:00,48.5,43.9,30.38,ESE,111,6.0,7.0,84,0.00,,---,0.00,VWS V14.01,2013-01-28 18:11:00,
2013-01-28 13:16:00,48.8,43.9,30.37,SE,136,3.0,7.0,83,0.00,,---,0.00,VWS V14.01,2013-01-28 18:16:00,
2013-01-28 13:21:00,49.1,44.5,30.36,ESE,114,5.0,7.0,84,0.00,,---,0.00,VWS V14.01,2013-01-28 18:21:00,
2013-01-28 13:26:00,49.3,44.4,30.36,East,99,6.0,10.0,83,0.00,,---,0.00,VWS V14.01,2013-01-28 18:26:00,
2013-01-28 13:31:00,49.6,45.0,30.35,SE,126,7.0,9.0,84,0.00,,---,0.00,VWS V14.01,2013-01-28 18:31:00,
2013-01-28 13:36:00,49.7,44.8,30.35,ESE,117,5.0,9.0,83,0.00,,---,0.00,VWS V14.01,2013-01-28 18:36:00,
2013-01-28 13:41:00,49.9,45.0,30.35,SE,124,6.0,9.0,83,0.00,,---,0.00,VWS V14.01,2013-01-28 18:41:00,
2013-01-28 13:46:00,50.1,45.5,30.35,ESE,113,5.0,9.0,84,0.00,,---,0.00,VWS V14.01,2013-01-28 18:46:00,
2013-01-28 13:51:00,50.0,45.4,30.35,ESE,113,6.0,9.0,84,0.00,,---,0.00,VWS V14.01,2013-01-28 18:51:00,
2013-01-28 13:56:00,50.1,45.5,30.35,ESE,105,3.0,9.0,84,0.00,,---,0.00,VWS V14.01,2013-01-28 18:56:00,
2013-01-28 14:01:00,50.3,46.0,30.35,ESE,115,5.0,7.0,85,0.00,,---,0.00,VWS V14.01,2013-01-28 19:01:00,
2013-01-28 14:06:00,50.4,46.1,30.35,SE,128,3.0,9.0,85,0.00,,---,0.00,VWS V14.01,2013-01-28 19:06:00,
2013-01-28 14:11:00,50.3,46.0,30.34,ESE,120,3.0,9.0,85,0.00,,---,0.00,VWS V14.01,2013-01-28 19:11:00,
2013-01-28 14:16:00,50.3,46.0,30.34,ESE,115,5.0,9.0,85,0.00,,---,0.00,VWS V14.01,2013-01-28 19:16:00,
2013-01-28 14:21:00,50.4,46.4,30.34,ESE,123,4.0,9.0,86,0.00,,---,0.00,VWS V14.01,2013-01-28 19:21:00,
2013-01-28 14:26:00,50.5,46.2,30.34,ESE,121,3.0,9.0,85,0.00,,---,0.00,VWS V14.01,2013-01-28 19:26:00,
2013-01-28 14:31:00,50.6,46.6,30.34,SE,136,0.0,5.0,86,0.00,,---,0.00,VWS V14.01,2013-01-28 19:31:00,
2013-01-28 14:36:00,50.7,46.4,30.34,SE,133,5.0,6.0,85,0.00,,---,0.00,VWS V14.01,2013-01-28 19:36:00,
2013-01-28 14:41:00,50.8,46.8,30.34,SE,139,0.0,6.0,86,0.00,,---,0.00,VWS V14.01,2013-01-28 19:41:00,
2013-01-28 14:47:00,51.2,47.2,30.34,SSE,148,3.0,6.0,86,0.00,,---,0.00,VWS V14.01,2013-01-28 19:47:00,
2013-01-28 14:52:00,51.4,47.0,30.34,South,173,3.0,6.0,85,0.00,,---,0.00,VWS V14.01,2013-01-28 19:52:00,
2013-01-28 14:57:00,51.5,47.2,30.34,South,180,5.0,6.0,85,0.00,,---,0.00,VWS V14.01,2013-01-28 19:57:00,
2013-01-28 15:02:00,51.5,47.2,30.33,South,180,5.0,7.0,85,0.00,,---,0.00,VWS V14.01,2013-01-28 20:02:00,
2013-01-28 15:07:00,51.7,47.3,30.33,SSW,192,4.0,7.0,85,0.00,,---,0.00,VWS V14.01,2013-01-28 20:07:00,
2013-01-28 15:12:00,51.9,47.5,30.33,South,178,4.0,7.0,85,0.00,,---,0.00,VWS V14.01,2013-01-28 20:12:00,
2013-01-28 15:17:00,52.1,47.4,30.33,South,171,2.0,7.0,84,0.00,,---,0.00,VWS V14.01,2013-01-28 20:17:00,
2013-01-28 15:22:00,51.9,47.2,30.33,SSE,168,4.0,7.0,84,0.00,,---,0.00,VWS V14.01,2013-01-28 20:22:00,
2013-01-28 15:27:00,51.7,47.0,30.33,South,179,2.0,7.0,84,0.00,,---,0.00,VWS V14.01,2013-01-28 20:27:00,
2013-01-28 15:32:00,51.6,46.9,30.33,South,175,4.0,5.0,84,0.00,,---,0.00,VWS V14.01,2013-01-28 20:32:00,
2013-01-28 15:37:00,51.6,47.2,30.32,South,174,4.0,7.0,85,0.00,,---,0.00,VWS V14.01,2013-01-28 20:37:00,
2013-01-28 15:42:00,51.5,47.2,30.32,South,179,2.0,9.0,85,0.00,,---,0.00,VWS V14.01,2013-01-28 20:42:00,
2013-01-28 15:47:00,51.4,47.0,30.32,SSE,167,3.0,9.0,85,0.00,,---,0.00,VWS V14.01,2013-01-28 20:47:00,
2013-01-28 15:52:00,51.3,47.0,30.32,SSE,168,0.0,9.0,85,0.00,,---,0.00,VWS V14.01,2013-01-28 20:52:00,
2013-01-28 15:57:00,50.9,46.6,30.32,SSE,168,0.0,9.0,85,0.00,,---,0.00,VWS V14.01,2013-01-28 20:57:00,
2013-01-28 16:02:00,50.4,46.1,30.32,ESE,102,0.0,2.0,85,0.00,,---,0.00,VWS V14.01,2013-01-28 21:02:00,
2013-01-28 16:07:00,50.2,46.2,30.32,ESE,102,0.0,2.0,86,0.00,,---,0.00,VWS V14.01,2013-01-28 21:07:00,
2013-01-28 16:12:00,50.1,46.1,30.32,ESE,102,0.0,2.0,86,0.00,,---,0.00,VWS V14.01,2013-01-28 21:12:00,
2013-01-28 16:17:00,50.2,46.5,30.32,ESE,102,0.0,2.0,87,0.00,,---,0.00,VWS V14.01,2013-01-28 21:17:00,
2013-01-28 16:22:00,50.3,46.6,30.32,ESE,102,0.0,2.0,87,0.00,,---,0.00,VWS V14.01,2013-01-28 21:22:00,
2013-01-28 16:27:00,50.3,46.6,30.32,ESE,102,1.0,2.0,87,0.00,,---,0.00,VWS V14.01,2013-01-28 21:27:00,
2013-01-28 16:32:00,50.4,46.7,30.32,ESE,102,2.0,3.0,87,0.00,,---,0.00,VWS V14.01,2013-01-28 21:32:00,
2013-01-28 16:37:00,50.4,46.7,30.32,NE,46,2.0,3.0,87,0.00,,---,0.00,VWS V14.01,2013-01-28 21:37:00,
2013-01-28 16:43:00,50.3,46.9,30.32,NE,46,2.0,3.0,88,0.00,,---,0.00,VWS V14.01,2013-01-28 21:43:00,
2013-01-28 16:48:00,50.3,46.9,30.32,NE,51,2.0,3.0,88,0.00,,---,0.00,VWS V14.01,2013-01-28 21:48:00,
2013-01-28 16:53:00,50.5,47.1,30.31,SSE,153,3.0,5.0,88,0.00,,---,0.00,VWS V14.01,2013-01-28 21:53:00,
2013-01-28 16:58:00,50.5,47.1,30.31,SSE,156,4.0,6.0,88,0.00,,---,0.00,VWS V14.01,2013-01-28 21:58:00,
2013-01-28 17:03:00,50.5,47.1,30.31,SSE,161,2.0,5.0,88,0.00,,---,0.00,VWS V14.01,2013-01-28 22:03:00,
2013-01-28 17:08:00,50.5,47.1,30.31,South,173,4.0,6.0,88,0.00,,---,0.00,VWS V14.01,2013-01-28 22:08:00,
2013-01-28 17:13:00,50.5,47.1,30.31,South,182,4.0,6.0,88,0.00,,---,0.00,VWS V14.01,2013-01-28 22:13:00,
2013-01-28 17:18:00,50.5,47.4,30.31,South,171,2.0,6.0,89,0.00,,---,0.00,VWS V14.01,2013-01-28 22:18:00,
2013-01-28 17:23:00,50.5,47.4,30.31,SSE,167,2.0,6.0,89,0.00,,---,0.00,VWS V14.01,2013-01-28 22:23:00,
2013-01-28 17:28:00,50.6,47.5,30.31,SSE,167,2.0,2.0,89,0.00,,---,0.00,VWS V14.01,2013-01-28 22:28:00,
2013-01-28 17:33:00,50.5,47.4,30.31,SSE,160,1.0,3.0,89,0.00,,---,0.00,VWS V14.01,2013-01-28 22:33:00,
2013-01-28 17:38:00,50.5,47.4,30.31,SSE,157,0.0,3.0,89,0.00,,---,0.00,VWS V14.01,2013-01-28 22:38:00,
2013-01-28 17:43:00,50.4,47.3,30.31,SSE,157,0.0,3.0,89,0.00,,---,0.00,VWS V14.01,2013-01-28 22:43:00,
2013-01-28 17:48:00,50.4,47.3,30.31,SSE,157,0.0,3.0,89,0.00,,---,0.00,VWS V14.01,2013-01-28 22:48:00,
2013-01-28 17:53:00,50.3,47.2,30.30,SSE,157,0.0,3.0,89,0.00,,---,0.00,VWS V14.01,2013-01-28 22:53:00,
2013-01-28 17:58:00,50.3,47.2,30.31,East,94,2.0,3.0,89,0.00,,---,0.00,VWS V14.01,2013-01-28 22:58:00,
2013-01-28 18:03:00,50.0,46.9,30.31,East,94,3.0,3.0,89,0.00,,---,0.00,VWS V14.01,2013-01-28 23:03:00,
2013-01-28 18:08:00,49.9,47.1,30.31,East,94,1.0,3.0,90,0.00,,---,0.00,VWS V14.01,2013-01-28 23:08:00,
2013-01-28 18:14:00,49.7,46.9,30.31,East,94,0.0,3.0,90,0.00,,---,0.00,VWS V14.01,2013-01-28 23:14:00,
2013-01-28 18:19:00,49.6,46.8,30.32,East,94,1.0,3.0,90,0.00,,---,0.00,VWS V14.01,2013-01-28 23:19:00,
2013-01-28 18:24:00,49.6,46.8,30.32,East,94,0.0,3.0,90,0.00,,---,0.00,VWS V14.01,2013-01-28 23:24:00,
2013-01-28 18:29:00,49.5,46.7,30.32,East,94,1.0,1.0,90,0.00,,---,0.00,VWS V14.01,2013-01-28 23:29:00,
2013-01-28 18:34:00,49.4,46.6,30.32,East,94,0.0,1.0,90,0.00,,---,0.00,VWS V14.01,2013-01-28 23:34:00,
2013-01-28 18:39:00,49.3,46.5,30.31,East,94,0.0,1.0,90,0.00,,---,0.00,VWS V14.01,2013-01-28 23:39:00,
2013-01-28 18:44:00,49.2,46.4,30.31,East,94,0.0,1.0,90,0.00,,---,0.00,VWS V14.01,2013-01-28 23:44:00,
2013-01-28 18:48:00,49.1,46.3,30.31,East,94,0.0,1.0,90,0.00,,---,0.00,VWS V14.01,2013-01-28 23:48:00,
2013-01-28 18:53:00,49.0,46.2,30.31,East,94,0.0,1.0,90,0.00,,---,0.00,VWS V14.01,2013-01-28 23:53:00,
2013-01-28 18:58:00,49.0,46.5,30.31,East,94,0.0,0.0,91,0.00,,---,0.00,VWS V14.01,2013-01-28 23:58:00,
2013-01-28 19:03:00,48.8,46.3,30.31,East,94,0.0,1.0,91,0.00,,---,0.00,VWS V14.01,2013-01-29 00:03:00,
2013-01-28 19:08:00,48.8,46.3,30.31,East,94,0.0,1.0,91,0.00,,---,0.00,VWS V14.01,2013-01-29 00:08:00,
2013-01-28 19:14:00,48.8,46.3,30.31,East,94,0.0,1.0,91,0.00,,---,0.00,VWS V14.01,2013-01-29 00:14:00,
2013-01-28 19:19:00,49.0,46.5,30.31,East,94,1.0,1.0,91,0.00,,---,0.00,VWS V14.01,2013-01-29 00:19:00,
2013-01-28 19:24:00,48.8,46.3,30.31,East,94,0.0,1.0,91,0.00,,---,0.00,VWS V14.01,2013-01-29 00:24:00,
2013-01-28 19:29:00,48.6,46.1,30.31,East,94,0.0,1.0,91,0.00,,---,0.00,VWS V14.01,2013-01-29 00:29:00,
2013-01-28 19:34:00,48.4,45.9,30.30,East,94,0.0,1.0,91,0.00,,---,0.00,VWS V14.01,2013-01-29 00:34:00,
2013-01-28 19:39:00,48.3,46.1,30.31,East,94,1.0,1.0,92,0.00,,---,0.00,VWS V14.01,2013-01-29 00:39:00,
2013-01-28 19:44:00,48.3,46.1,30.31,East,94,1.0,1.0,92,0.00,,---,0.00,VWS V14.01,2013-01-29 00:44:00,
2013-01-28 19:49:00,48.3,46.1,30.31,East,94,0.0,1.0,92,0.00,,---,0.00,VWS V14.01,2013-01-29 00:49:00,
2013-01-28 19:54:00,48.3,46.1,30.30,East,94,0.0,1.0,92,0.00,,---,0.00,VWS V14.01,2013-01-29 00:54:00,
2013-01-28 19:59:00,48.3,46.1,30.30,East,94,0.0,0.0,92,0.00,,---,0.00,VWS V14.01,2013-01-29 00:59:00,
2013-01-28 20:04:00,48.3,46.1,30.30,East,94,0.0,0.0,92,0.00,,---,0.00,VWS V14.01,2013-01-29 01:04:00,
2013-01-28 20:09:00,48.2,46.0,30.30,East,94,0.0,0.0,92,0.00,,---,0.00,VWS V14.01,2013-01-29 01:09:00,
2013-01-28 20:14:00,48.2,46.0,30.30,East,94,0.0,0.0,92,0.00,,---,0.00,VWS V14.01,2013-01-29 01:14:00,
2013-01-28 20:19:00,48.1,46.2,30.30,East,94,0.0,0.0,93,0.00,,---,0.00,VWS V14.01,2013-01-29 01:19:00,
2013-01-28 20:24:00,48.2,46.3,30.30,East,94,0.0,0.0,93,0.00,,---,0.00,VWS V14.01,2013-01-29 01:24:00,
2013-01-28 20:29:00,48.3,46.4,30.30,East,94,0.0,0.0,93,0.00,,---,0.00,VWS V14.01,2013-01-29 01:29:00,
2013-01-28 20:34:00,48.5,46.6,30.30,East,94,0.0,0.0,93,0.00,,---,0.00,VWS V14.01,2013-01-29 01:34:00,
2013-01-28 20:39:00,48.6,46.7,30.30,East,94,0.0,0.0,93,0.00,,---,0.00,VWS V14.01,2013-01-29 01:39:00,
2013-01-28 20:44:00,48.6,46.7,30.30,East,94,0.0,0.0,93,0.00,,---,0.00,VWS V14.01,2013-01-29 01:44:00,
2013-01-28 20:49:00,48.6,46.7,30.30,East,94,0.0,0.0,93,0.00,,---,0.00,VWS V14.01,2013-01-29 01:49:00,
2013-01-28 20:54:00,48.7,46.8,30.30,East,94,0.0,1.0,93,0.00,,---,0.00,VWS V14.01,2013-01-29 01:54:00,
2013-01-28 20:59:00,48.9,47.0,30.30,East,94,1.0,2.0,93,0.00,,---,0.00,VWS V14.01,2013-01-29 01:59:00,
2013-01-28 21:04:00,49.1,47.2,30.30,ESE,123,2.0,2.0,93,0.00,,---,0.00,VWS V14.01,2013-01-29 02:04:00,
2013-01-28 21:09:00,49.4,47.5,30.30,SE,136,1.0,2.0,93,0.00,,---,0.00,VWS V14.01,2013-01-29 02:09:00,
2013-01-28 21:14:00,49.6,48.0,30.30,SSE,156,2.0,2.0,94,0.00,,---,0.00,VWS V14.01,2013-01-29 02:14:00,
2013-01-28 21:19:00,49.7,47.8,30.30,SSW,212,3.0,3.0,93,0.00,,---,0.00,VWS V14.01,2013-01-29 02:19:00,
2013-01-28 21:24:00,49.8,48.2,30.30,WSW,248,3.0,3.0,94,0.00,,---,0.00,VWS V14.01,2013-01-29 02:24:00,
2013-01-28 21:29:00,49.7,48.0,30.30,WSW,248,2.0,3.0,94,0.00,,---,0.00,VWS V14.01,2013-01-29 02:29:00,
2013-01-28 21:34:00,49.6,48.0,30.30,WSW,248,2.0,3.0,94,0.00,,---,0.00,VWS V14.01,2013-01-29 02:34:00,
2013-01-28 21:39:00,49.6,48.0,30.30,WSW,248,2.0,4.0,94,0.00,,---,0.00,VWS V14.01,2013-01-29 02:39:00,
2013-01-28 21:44:00,49.6,48.0,30.29,WSW,248,2.0,4.0,94,0.00,,---,0.00,VWS V14.01,2013-01-29 02:44:00,
2013-01-28 21:49:00,49.6,48.0,30.29,WSW,248,2.0,4.0,94,0.00,,---,0.00,VWS V14.01,2013-01-29 02:49:00,
2013-01-28 21:54:00,49.5,48.1,30.29,WSW,248,3.0,4.0,95,0.00,,---,0.00,VWS V14.01,2013-01-29 02:54:00,
2013-01-28 22:00:00,49.5,48.1,30.29,WSW,248,3.0,3.0,95,0.00,,---,0.00,VWS V14.01,2013-01-29 03:00:00,
2013-01-28 22:05:00,49.3,47.9,30.29,WSW,248,3.0,3.0,95,0.00,,---,0.00,VWS V14.01,2013-01-29 03:05:00,
2013-01-28 22:10:00,49.2,47.8,30.29,WSW,248,1.0,3.0,95,0.00,,---,0.00,VWS V14.01,2013-01-29 03:10:00,
2013-01-28 22:15:00,49.1,47.7,30.29,WSW,250,3.0,3.0,95,0.00,,---,0.00,VWS V14.01,2013-01-29 03:15:00,
2013-01-28 22:20:00,49.1,47.7,30.29,WSW,250,2.0,4.0,95,0.00,,---,0.00,VWS V14.01,2013-01-29 03:20:00,
2013-01-28 22:25:00,49.1,47.7,30.28,WSW,250,3.0,4.0,95,0.00,,---,0.00,VWS V14.01,2013-01-29 03:25:00,
2013-01-28 22:30:00,49.1,47.7,30.28,WSW,250,2.0,3.0,95,0.00,,---,0.00,VWS V14.01,2013-01-29 03:30:00,
2013-01-28 22:35:00,48.9,47.5,30.28,WSW,250,2.0,3.0,95,0.00,,---,0.00,VWS V14.01,2013-01-29 03:35:00,
2013-01-28 22:40:00,48.9,47.5,30.28,WSW,258,4.0,4.0,95,0.00,,---,0.00,VWS V14.01,2013-01-29 03:40:00,
2013-01-28 22:45:00,49.1,48.0,30.28,West,265,3.0,4.0,96,0.00,,---,0.00,VWS V14.01,2013-01-29 03:45:00,
2013-01-28 22:50:00,49.2,48.1,30.28,West,265,3.0,4.0,96,0.00,,---,0.00,VWS V14.01,2013-01-29 03:50:00,
2013-01-28 22:55:00,49.2,48.1,30.28,West,265,2.0,4.0,96,0.00,,---,0.00,VWS V14.01,2013-01-29 03:55:00,
2013-01-28 23:00:00,49.3,48.2,30.28,West,265,3.0,4.0,96,0.00,,---,0.00,VWS V14.01,2013-01-29 04:00:00,
2013-01-28 23:05:00,49.4,48.3,30.28,West,265,4.0,4.0,96,0.00,,---,0.00,VWS V14.01,2013-01-29 04:05:00,
2013-01-28 23:10:00,49.4,48.3,30.28,West,265,3.0,4.0,96,0.00,,---,0.00,VWS V14.01,2013-01-29 04:10:00,
2013-01-28 23:15:00,49.4,48.3,30.28,West,265,3.0,4.0,96,0.00,,---,0.00,VWS V14.01,2013-01-29 04:15:00,
2013-01-28 23:20:00,49.3,48.2,30.28,West,265,3.0,4.0,96,0.00,,---,0.00,VWS V14.01,2013-01-29 04:20:00,
2013-01-28 23:25:00,49.3,48.2,30.28,WNW,284,4.0,5.0,96,0.00,,---,0.00,VWS V14.01,2013-01-29 04:25:00,
2013-01-28 23:30:00,49.3,48.2,30.28,WNW,284,3.0,4.0,96,0.00,,---,0.00,VWS V14.01,2013-01-29 04:30:00,
2013-01-28 23:36:00,49.3,48.2,30.28,West,272,4.0,5.0,96,0.00,,---,0.00,VWS V14.01,2013-01-29 04:36:00,
2013-01-28 23:41:00,49.3,48.2,30.27,West,268,4.0,5.0,96,0.00,,---,0.00,VWS V14.01,2013-01-29 04:41:00,
2013-01-28 23:46:00,49.6,48.8,30.27,West,269,5.0,5.0,97,0.00,,---,0.00,VWS V14.01,2013-01-29 04:46:00,
2013-01-28 23:51:00,49.7,48.9,30.27,West,270,5.0,5.0,97,0.00,,---,0.00,VWS V14.01,2013-01-29 04:51:00,
2013-01-28 23:56:00,49.7,48.6,30.27,West,271,5.0,6.0,96,0.00,,---,0.00,VWS V14.01,2013-01-29 04:56:00,